Regional Weather Roundup
Issued by NWS

Home | Current Version | Previous Version | Text Only | Print | Product List | Glossary Off
Versions: 1 2 3 4 5 6 7 8 9 10 11 12 13 14 15 16 17 18 19 20 21 22 23 24 25 26 27 28 29 30 31 32 33 34 35 36 37 38 39 40 41 42 43 44 45 46 47 48 49 50

000
ASUS45 KCYS 011110
RWRWY

WYOMING REGIONAL WEATHER ROUNDUP
NATIONAL WEATHER SERVICE CHEYENNE WY
500 AM MDT MON JUN 01 2015

NOTE:  "FAIR" INDICATES FEW OR NO CLOUDS BELOW 12,000 FEET
WITH NO SIGNIFICANT WEATHER AND/OR OBSTRUCTIONS TO VISIBILITY.

WYZ001-011200-
YELLOWSTONE NATIONAL PARK

CITY           SKY/WX    TMP DP  RH WIND       PRES   REMARKS
LK YELLOWSTONE   N/A     44  40  85 CALM      30.20F
W YELLOWSTONE  NOT AVBL

$$
WYZ002>013-054>058-071-098>099-011200-
NORTHERN WYOMING

CITY           SKY/WX    TMP DP  RH WIND       PRES   REMARKS
JACKSON        NOT AVBL
CODY           FAIR      61  43  51 SW13      29.99R
GREYBULL       FAIR      60  52  74 SW3       29.94F
WORLAND        FAIR      57  51  80 SE8       29.95F
SHERIDAN       FAIR      52  48  86 W5        29.94F
BUFFALO        FAIR      56  45  66 NW6       30.01F
GILLETTE       FAIR      51  49  92 CALM      29.99F
HULETT         FAIR      61  50  67 CALM      29.99S
NEWCASTLE      FAIR      59  46  63 CALM      30.01R

$$
WYZ014>020-022>026-101>103-011200-
CENTRAL WYOMING

CITY           SKY/WX    TMP DP  RH WIND       PRES   REMARKS
BIG PINEY      FAIR      52  41  66 NE16      30.13F
PINEDALE       PTSUNNY   46  45  93 W8        30.16S
DUBOIS         PTSUNNY   46  37  71 NW12      30.16S
LANDER         MOCLDY    56  45  66 S5        30.03S
RIVERTON       FAIR      55  49  80 NW12      30.03S
CASPER         FAIR      53  48  83 SW8       30.02F
DOUGLAS        FAIR      52  50  93 SE6       30.03S

$$
WYZ021-027>030-104>119-011200-
SOUTHERN WYOMING

CITY           SKY/WX    TMP DP  RH WIND       PRES   REMARKS
EVANSTON       FAIR      56  36  47 SE8       30.11F
KEMMERER       FAIR      46  41  81 N8        30.14S
FORT BRIDGER   SUNNY     57  37  47 CALM      30.14S
ROCK SPRINGS   FAIR      58  38  47 SE9       30.11F
DIXON          FAIR      53  40  62 E6        30.18S
RAWLINS        FAIR      55  39  54 SW7       30.15F
SARATOGA       FAIR      54  36  50 S17G24    30.19S
LARAMIE        FAIR      43  37  79 S7        30.19S
CHEYENNE       FAIR      49  44  83 W9        30.12F
TORRINGTON     FAIR      55  51  86 SE6       30.01R
PINE BLUFFS    FAIR      46  45  93 CALM      30.09S

$$



USA.gov is the U.S. government's official web portal to all federal, state and local government web resources and services.